Weather History for Pontiac, MI

Change the Weather History Date:

Monday, January 16, 2012

  Actual Average Record
Temperature  
Mean Temperature 32 °F -  
Max Temperature 42 °F 25 °F 42 °F (2012)
Min Temperature 21 °F 12 °F -9 °F (2009)
Degree Days  
Heating Degree Days 34    
Moisture  
Dew Point 29 °F    
Average Humidity 82    
Maximum Humidity 100    
Minimum Humidity 65    
Precipitation  
Precipitation 0.01 in - - ()
Sea Level Pressure  
Sea Level Pressure 29.93 in    
Wind  
Wind Speed 9 mph (South)    
Max Wind Speed 15 mph    
Max Gust Speed 22 mph    
Visibility 8 miles    
Events Rain    
Averages and records for this station are not official NWS values.
T = Trace of Precipitation, MM = Missing Value Source: NWS Daily Summary

Daily Weather History Graph

Daily Weather History Graph

Search for Another Location

Airport:

Trip Planner

Search our weather history database for the weather conditions in past years. The results will help you decide how hot, cold, wet, or windy it might be!

Date:

Astronomy

Jan. 16, 2012 Rise Set
Actual Time 8:00 AM EST 5:26 PM EST
Civil Twilight 7:29 AM EST 5:57 PM EST
Nautical Twilight 6:54 AM EST 6:32 PM EST
Astronomical Twilight 6:21 AM EST 7:05 PM EST
Moon 1:05 AM EST (1/16) 11:41 AM EST (1/16)
Length of Visible Light 10h 27m
Length of Day
9h 25m
Waning Gibbous, 46% of the Moon is Illuminated
Jan 16
Waning Gibbous
Jan 23
New
Jan 30
First Quarter
Feb 7
Full
Feb 14
Last Quarter

Hourly Weather History & Observations

Time (EST) Temp. Windchill Dew Point Humidity Pressure Visibility Wind Dir Wind Speed Gust Speed Precip Events Conditions
12:53 AM 21.0 °F 10.6 °F 16.0 °F 81% 30.28 in 7.0 mi SSE 9.2 mph - N/A   Clear
1:53 AM 21.9 °F 11.7 °F 17.1 °F 82% 30.25 in 7.0 mi SSE 9.2 mph - N/A   Clear
2:53 AM 21.9 °F 11.7 °F 17.1 °F 82% 30.22 in 8.0 mi SSE 9.2 mph - N/A   Clear
3:53 AM 21.9 °F 11.7 °F 18.0 °F 85% 30.18 in 9.0 mi SSE 9.2 mph - N/A   Clear
4:53 AM 24.1 °F 14.4 °F 18.0 °F 77% 30.13 in 10.0 mi South 9.2 mph - N/A   Clear
5:53 AM 24.1 °F 14.4 °F 18.0 °F 77% 30.10 in 10.0 mi SSE 9.2 mph - N/A   Clear
6:10 AM 24.8 °F 14.6 °F 19.4 °F 80% 30.05 in 10.0 mi SSE 10.4 mph 16.1 mph N/A   Partly Cloudy
6:53 AM 24.1 °F 14.4 °F 19.0 °F 81% 30.07 in 10.0 mi SSE 9.2 mph - N/A   Partly Cloudy
7:53 AM 24.1 °F 16.0 °F 19.0 °F 81% 30.04 in 10.0 mi SSE 6.9 mph - N/A   Mostly Cloudy
8:53 AM 26.1 °F 19.4 °F 19.9 °F 78% 30.02 in 10.0 mi South 5.8 mph - N/A   Mostly Cloudy
9:53 AM 28.9 °F 17.7 °F 21.0 °F 72% 30.00 in 10.0 mi SSW 15.0 mph 21.9 mph N/A   Mostly Cloudy
10:53 AM 30.9 °F 22.8 °F 21.9 °F 69% 29.97 in 10.0 mi South 9.2 mph - N/A   Mostly Cloudy
11:53 AM 35.1 °F 27.4 °F 25.0 °F 67% 29.93 in 10.0 mi SSW 10.4 mph - N/A   Mostly Cloudy
12:53 PM 37.0 °F 28.9 °F 27.0 °F 67% 29.89 in 10.0 mi SSW 12.7 mph - N/A   Mostly Cloudy
1:53 PM 41.0 °F 34.7 °F 30.0 °F 65% 29.85 in 10.0 mi SSW 10.4 mph 17.3 mph N/A   Mostly Cloudy
2:53 PM 42.1 °F 35.2 °F 30.9 °F 65% 29.84 in 10.0 mi SSW 12.7 mph 20.7 mph N/A   Overcast
3:53 PM 41.0 °F 35.2 °F 32.0 °F 70% 29.84 in 10.0 mi SSW 9.2 mph - N/A   Overcast
4:42 PM 39.2 °F 34.2 °F 32.0 °F 75% 29.80 in 10.0 mi SSW 6.9 mph - N/A   Overcast
4:53 PM 39.9 °F 34.5 °F 32.0 °F 73% 29.83 in 10.0 mi SSW 8.1 mph - N/A   Overcast
5:53 PM 39.9 °F 34.5 °F 33.1 °F 77% 29.84 in 10.0 mi South 8.1 mph - 0.00 in   Overcast
6:29 PM 39.2 °F 33.0 °F 33.8 °F 81% 29.81 in 10.0 mi SSW 9.2 mph - N/A   Overcast
6:53 PM 39.0 °F 34.0 °F 36.0 °F 89% 29.84 in 7.0 mi SSW 6.9 mph - 0.00 in Rain Light Rain
7:19 PM 39.2 °F 35.0 °F 37.4 °F 93% 29.80 in 4.0 mi SSW 5.8 mph - 0.00 in Rain Light Rain
7:53 PM 39.0 °F 34.8 °F 37.9 °F 96% 29.82 in 3.0 mi South 5.8 mph - 0.00 in   Overcast
8:09 PM 39.2 °F 37.0 °F 37.4 °F 93% 29.79 in 2.5 mi SSW 3.5 mph - N/A   Overcast
8:43 PM 39.2 °F 34.2 °F 37.4 °F 93% 29.79 in 1.8 mi SSW 6.9 mph - 0.00 in   Light Drizzle
8:51 PM 39.2 °F 34.2 °F 39.2 °F 100% 29.79 in 2.0 mi SSW 6.9 mph - 0.00 in   Light Drizzle
8:53 PM 39.2 °F 35.0 °F 39.2 °F 100% 29.79 in 2.0 mi SSW 5.8 mph - N/A   Light Drizzle
9:53 PM 39.9 °F 34.5 °F 39.9 °F 100% 29.80 in 2.5 mi SSW 8.1 mph - 0.00 in   Light Drizzle
10:15 PM 41.0 °F 35.2 °F 39.2 °F 93% 29.77 in 4.0 mi SW 9.2 mph - 0.00 in   Light Drizzle
10:53 PM 41.0 °F 36.4 °F 39.2 °F 93% 29.76 in 6.0 mi SSW 6.9 mph - N/A Rain Light Rain
11:53 PM 42.1 °F 37.7 °F 41.0 °F 96% 29.78 in 3.0 mi SSW 6.9 mph - 0.01 in Rain Light Rain